Radiation Dose at Monitoring Post of Fukushima Daini Nuclear Power Station
Date,Time,MP-1(microSv/h),MP-2(microSv/h),MP-3(microSv/h),MP-4(microSv/h),MP-5(microSv/h),MP-6(microSv/h),MP-7(microSv/h),Wind Direction,Wind Velocity(m/s),Rain
2018/10/09,00:00,0.308,0.193,0.313,0.302,0.284,0.155,0.096,south,3.1,No
2018/10/09,00:10,0.311,0.193,0.313,0.300,0.284,0.156,0.095,south,3.3,No
2018/10/09,00:20,0.309,0.192,0.311,0.301,0.285,0.155,0.096,south,3.5,No
2018/10/09,00:30,0.309,0.192,0.312,0.302,0.284,0.157,0.096,south-southwest,3.0,No
2018/10/09,00:40,0.308,0.193,0.313,0.300,0.283,0.156,0.095,south,3.4,No
2018/10/09,00:50,0.310,0.193,0.312,0.302,0.284,0.156,0.096,south,3.4,No
2018/10/09,01:00,0.308,0.193,0.314,0.299,0.284,0.156,0.096,south,2.6,No
2018/10/09,01:10,0.308,0.193,0.312,0.302,0.284,0.154,0.095,south,1.0,No
2018/10/09,01:20,0.309,0.192,0.313,0.300,0.282,0.156,0.095,south,0.7,No
2018/10/09,01:30,0.309,0.192,0.312,0.303,0.283,0.156,0.095,south,1.4,No
2018/10/09,01:40,0.309,0.194,0.313,0.300,0.283,0.156,0.096,south,2.7,No
2018/10/09,01:50,0.307,0.192,0.312,0.300,0.284,0.156,0.096,south,2.9,No
2018/10/09,02:00,0.309,0.193,0.312,0.302,0.283,0.155,0.095,south,2.8,No
2018/10/09,02:10,0.306,0.192,0.313,0.298,0.285,0.156,0.095,south,3.4,No
2018/10/09,02:20,0.308,0.192,0.311,0.302,0.282,0.155,0.095,south,3.1,No
2018/10/09,02:30,0.308,0.192,0.313,0.299,0.285,0.156,0.094,south,3.0,No
2018/10/09,02:40,0.308,0.193,0.312,0.302,0.282,0.155,0.095,south,2.6,No
2018/10/09,02:50,0.309,0.194,0.313,0.300,0.284,0.156,0.095,south,2.4,No
2018/10/09,03:00,0.307,0.192,0.312,0.301,0.284,0.155,0.096,south,2.1,No
2018/10/09,03:10,0.307,0.194,0.313,0.300,0.283,0.156,0.095,south,2.4,No
2018/10/09,03:20,0.308,0.193,0.312,0.300,0.283,0.156,0.096,south,2.5,No
2018/10/09,03:30,0.308,0.192,0.313,0.300,0.284,0.156,0.095,south,2.5,No
2018/10/09,03:40,0.308,0.193,0.313,0.299,0.283,0.156,0.095,south,2.4,No
2018/10/09,03:50,0.308,0.192,0.312,0.303,0.283,0.155,0.095,south-southwest,2.1,No
2018/10/09,04:00,0.306,0.193,0.314,0.300,0.284,0.154,0.096,south-southwest,2.5,No
2018/10/09,04:10,0.309,0.191,0.311,0.302,0.284,0.155,0.095,south,2.8,No
2018/10/09,04:20,0.305,0.193,0.313,0.300,0.282,0.155,0.095,south,3.2,No
2018/10/09,04:30,0.308,0.191,0.311,0.301,0.284,0.156,0.095,south,1.9,No
2018/10/09,04:40,0.306,0.193,0.313,0.300,0.283,0.155,0.095,south,1.4,No
2018/10/09,04:50,0.308,0.192,0.311,0.301,0.283,0.155,0.095,south,2.8,No
2018/10/09,05:00,0.306,0.193,0.314,0.298,0.283,0.155,0.096,south,3.3,No
2018/10/09,05:10,0.308,0.193,0.311,0.302,0.282,0.156,0.094,south-southwest,2.9,No
2018/10/09,05:20,0.308,0.191,0.312,0.300,0.284,0.155,0.095,south-southwest,3.0,No
2018/10/09,05:30,0.308,0.193,0.313,0.300,0.282,0.155,0.095,south,2.3,No
2018/10/09,05:40,0.308,0.191,0.312,0.300,0.284,0.155,0.095,south-southwest,2.6,No
2018/10/09,05:50,0.308,0.192,0.312,0.299,0.282,0.156,0.095,south-southwest,3.1,No
2018/10/09,06:00,0.308,0.192,0.311,0.303,0.284,0.156,0.095,south-southwest,3.1,No
2018/10/09,06:10,0.306,0.193,0.313,0.299,0.282,0.155,0.096,south-southwest,3.2,No
2018/10/09,06:20,0.309,0.193,0.310,0.301,0.284,0.155,0.095,south,3.2,No
2018/10/09,06:30,0.307,0.191,0.313,0.299,0.283,0.155,0.095,south,3.4,No
2018/10/09,06:40,0.307,0.192,0.311,0.300,0.284,0.156,0.095,south,3.6,No
2018/10/09,06:50,0.305,0.192,0.312,0.298,0.282,0.155,0.095,south,4.5,No
2018/10/09,07:00,0.307,0.192,0.311,0.302,0.283,0.156,0.095,south,4.2,No
2018/10/09,07:10,0.306,0.191,0.312,0.300,0.283,0.155,0.095,south,4.6,No
2018/10/09,07:20,0.309,0.193,0.312,0.300,0.282,0.155,0.095,south-southwest,4.1,No
2018/10/09,07:30,0.307,0.191,0.312,0.296,0.283,0.155,0.094,south-southwest,3.7,No
2018/10/09,07:40,0.307,0.192,0.310,0.298,0.281,0.155,0.095,south-southwest,2.7,No
2018/10/09,07:50,0.307,0.191,0.312,0.300,0.284,0.155,0.095,south,1.7,No
2018/10/09,08:00,0.307,0.193,0.310,0.296,0.282,0.156,0.093,south-southwest,2.0,No
2018/10/09,08:10,0.307,0.191,0.313,0.299,0.281,0.155,0.094,south-southwest,2.6,No
2018/10/09,08:20,0.305,0.192,0.309,0.300,0.285,0.156,0.094,south,2.9,No
2018/10/09,08:30,0.308,0.192,0.311,0.297,0.280,0.155,0.095,south,2.4,No
2018/10/09,08:40,0.307,0.190,0.311,0.300,0.281,0.155,0.095,south,2.5,No
2018/10/09,08:50,0.305,0.190,0.310,0.300,0.284,0.156,0.095,south,2.9,No
2018/10/09,09:00,0.308,0.192,0.313,0.298,0.282,0.155,0.093,south,2.9,No
2018/10/09,09:10,0.306,0.192,0.311,0.296,0.280,0.155,0.094,south,3.1,No
2018/10/09,09:20,0.305,0.191,0.312,0.300,0.281,0.156,0.095,south,2.7,No
2018/10/09,09:30,0.308,0.191,0.313,0.299,0.285,0.155,0.095,south,3.2,No
2018/10/09,09:40,0.307,0.193,0.310,0.298,0.282,0.153,0.094,south,2.4,No
2018/10/09,09:50,0.304,0.191,0.312,0.300,0.280,0.156,0.095,south,2.7,No
2018/10/09,10:00,0.309,0.190,0.312,0.301,0.285,0.156,0.094,south,3.0,No
2018/10/09,10:10,0.309,0.192,0.308,0.299,0.282,0.154,0.095,south-southeast,2.4,No
2018/10/09,10:20,0.305,0.192,0.312,0.299,0.282,0.154,0.095,south-southeast,2.4,No
2018/10/09,10:30,0.305,0.190,0.313,0.302,0.279,0.155,0.095,south,2.0,No
2018/10/09,10:40,0.308,0.192,0.309,0.301,0.283,0.155,0.094,south-southeast,2.5,No
2018/10/09,10:50,0.308,0.191,0.309,0.298,0.284,0.154,0.094,south-southwest,0.8,No
2018/10/09,11:00,0.305,0.193,0.312,0.298,0.281,0.155,0.094,south-southwest,1.1,No
2018/10/09,11:10,0.304,0.192,0.310,0.302,0.281,0.155,0.095,south-southeast,2.6,No
2018/10/09,11:20,0.309,0.191,0.309,0.300,0.279,0.155,0.095,south-southeast,2.2,No
2018/10/09,11:30,0.309,0.191,0.310,0.299,0.279,0.155,0.094,south,0.8,No
2018/10/09,11:40,0.307,0.191,0.314,0.300,0.277,0.154,0.094,south-southeast,1.5,No
2018/10/09,11:50,0.307,0.191,0.311,0.296,0.281,0.155,0.094,south-southeast,1.6,No
2018/10/09,12:00,0.304,0.191,0.309,0.296,0.281,0.155,0.094,south-southeast,1.8,No
2018/10/09,12:10,0.304,0.190,0.310,0.297,0.285,0.157,0.094,east-southeast,1.7,No
2018/10/09,12:20,0.305,0.192,0.308,0.296,0.285,0.155,0.094,southeast,1.7,No
2018/10/09,12:30,0.305,0.191,0.308,0.297,0.284,0.155,0.092,-,CALM,No
2018/10/09,12:40,0.303,0.191,0.309,0.298,0.283,0.156,0.094,southeast,0.9,No
2018/10/09,12:50,0.303,0.191,0.309,0.297,0.284,0.155,0.094,-,CALM,No
2018/10/09,13:00,0.305,0.190,0.309,0.297,0.281,0.154,0.093,southeast,0.6,No
2018/10/09,13:10,0.306,0.191,0.309,0.298,0.282,0.156,0.094,south-southeast,2.0,No
2018/10/09,13:20,0.305,0.191,0.309,0.296,0.282,0.155,0.095,south,0.9,No
2018/10/09,13:30,0.304,0.191,0.309,0.298,0.281,0.156,0.094,south,2.9,No
2018/10/09,13:40,0.305,0.191,0.311,0.297,0.282,0.155,0.094,south,1.0,No
2018/10/09,13:50,0.308,0.191,0.309,0.298,0.281,0.155,0.095,south-southwest,0.9,No
2018/10/09,14:00,0.310,0.192,0.308,0.303,0.281,0.155,0.095,east-southeast,1.4,No
2018/10/09,14:10,0.308,0.192,0.311,0.303,0.281,0.155,0.094,south-southeast,3.6,No
2018/10/09,14:20,0.306,0.193,0.312,0.298,0.280,0.155,0.094,south-southeast,1.7,No
2018/10/09,14:30,0.306,0.192,0.310,0.298,0.281,0.157,0.095,south-southeast,1.7,No
2018/10/09,14:40,0.309,0.193,0.309,0.301,0.283,0.155,0.096,south,0.8,No
2018/10/09,14:50,0.309,0.192,0.312,0.301,0.285,0.156,0.094,south,4.9,No
2018/10/09,15:00,0.306,0.191,0.313,0.300,0.284,0.155,0.095,south,4.2,No
2018/10/09,15:10,0.307,0.192,0.310,0.301,0.280,0.156,0.095,south,3.2,No
2018/10/09,15:20,0.309,0.193,0.314,0.301,0.285,0.156,0.095,south,2.6,No
2018/10/09,15:30,0.308,0.191,0.313,0.299,0.285,0.154,0.094,south,4.1,No
2018/10/09,15:40,0.306,0.193,0.311,0.301,0.282,0.156,0.095,south,4.3,No
2018/10/09,15:50,0.309,0.192,0.310,0.300,0.282,0.156,0.094,south,3.2,No
2018/10/09,16:00,0.308,0.192,0.314,0.298,0.286,0.155,0.094,south,1.9,No
2018/10/09,16:10,0.304,0.194,0.312,0.300,0.284,0.155,0.095,-,CALM,No
2018/10/09,16:20,0.306,0.193,0.311,0.301,0.282,0.156,0.094,south,0.6,No
2018/10/09,16:30,0.308,0.193,0.312,0.298,0.286,0.155,0.095,south,1.4,No
2018/10/09,16:40,0.306,0.193,0.311,0.302,0.284,0.155,0.095,south,1.9,No
2018/10/09,16:50,0.310,0.192,0.312,0.300,0.282,0.156,0.095,south,1.4,No
2018/10/09,17:00,0.306,0.194,0.313,0.299,0.284,0.155,0.095,south,2.0,No
2018/10/09,17:10,0.307,0.193,0.311,0.301,0.283,0.156,0.095,southeast,1.6,No
2018/10/09,17:20,0.308,0.193,0.314,0.298,0.287,0.156,0.094,south,2.7,No
2018/10/09,17:30,0.306,0.192,0.312,0.301,0.283,0.155,0.095,south,3.2,No
2018/10/09,17:40,0.308,0.192,0.312,0.300,0.283,0.157,0.095,south-southwest,2.9,No
2018/10/09,17:50,0.306,0.193,0.313,0.299,0.285,0.155,0.095,south-southwest,2.1,No
2018/10/09,18:00,0.307,0.192,0.311,0.301,0.282,0.154,0.095,south-southwest,1.9,No
2018/10/09,18:10,0.307,0.192,0.315,0.299,0.285,0.154,0.095,south-southwest,0.8,No
2018/10/09,18:20,0.306,0.193,0.312,0.301,0.284,0.153,0.095,-,CALM,No
2018/10/09,18:30,0.308,0.192,0.313,0.300,0.283,0.156,0.094,-,CALM,No
2018/10/09,18:40,0.307,0.194,0.313,0.300,0.284,0.155,0.096,-,CALM,No
2018/10/09,18:50,0.309,0.192,0.310,0.301,0.283,0.155,0.095,south,2.1,No
2018/10/09,19:00,0.306,0.194,0.314,0.300,0.286,0.155,0.095,south,2.9,No
2018/10/09,19:10,0.308,0.192,0.312,0.301,0.283,0.157,0.095,south-southwest,1.8,No
2018/10/09,19:20,0.308,0.193,0.313,0.299,0.286,0.155,0.095,south-southwest,1.5,No
2018/10/09,19:30,0.307,0.192,0.312,0.301,0.284,0.155,0.095,south-southwest,1.9,No
2018/10/09,19:40,0.308,0.193,0.313,0.299,0.284,0.156,0.096,south-southwest,1.6,No
2018/10/09,19:50,0.307,0.193,0.313,0.301,0.284,0.155,0.095,south-southwest,1.2,No
2018/10/09,20:00,0.308,0.194,0.310,0.300,0.284,0.156,0.094,south-southwest,1.9,No
2018/10/09,20:10,0.306,0.192,0.313,0.301,0.285,0.156,0.096,south-southwest,2.0,No
2018/10/09,20:20,0.309,0.193,0.310,0.301,0.283,0.156,0.095,south,2.5,No
2018/10/09,20:30,0.307,0.192,0.315,0.299,0.285,0.155,0.095,south,2.7,No
2018/10/09,20:40,0.309,0.193,0.313,0.303,0.283,0.157,0.096,south-southwest,2.4,No
2018/10/09,20:50,0.307,0.193,0.313,0.299,0.284,0.155,0.095,south,2.6,No
2018/10/09,21:00,0.309,0.193,0.312,0.303,0.283,0.156,0.095,south-southwest,2.9,No
2018/10/09,21:10,0.308,0.193,0.312,0.298,0.286,0.155,0.096,south-southwest,2.5,No
2018/10/09,21:20,0.308,0.193,0.312,0.302,0.284,0.157,0.095,south-southwest,2.1,No
2018/10/09,21:30,0.307,0.193,0.313,0.300,0.285,0.156,0.095,south-southwest,2.7,No
2018/10/09,21:40,0.309,0.193,0.313,0.301,0.283,0.156,0.095,south-southwest,2.7,No
2018/10/09,21:50,0.309,0.193,0.311,0.300,0.282,0.155,0.096,south-southwest,2.1,No
2018/10/09,22:00,0.307,0.193,0.314,0.301,0.284,0.156,0.095,south,1.9,No
2018/10/09,22:10,0.308,0.193,0.310,0.301,0.282,0.156,0.096,south-southwest,2.3,No
2018/10/09,22:20,0.307,0.194,0.315,0.302,0.284,0.156,0.095,south-southwest,2.0,No
2018/10/09,22:30,0.310,0.194,0.311,0.301,0.283,0.156,0.096,south,1.5,No
2018/10/09,22:40,0.308,0.192,0.314,0.300,0.286,0.156,0.096,south-southwest,1.7,No
2018/10/09,22:50,0.309,0.193,0.311,0.301,0.281,0.155,0.095,south-southwest,1.3,No
2018/10/09,23:00,0.306,0.192,0.313,0.301,0.286,0.156,0.096,south-southwest,1.0,No
2018/10/09,23:10,0.309,0.195,0.313,0.301,0.284,0.157,0.096,south,1.4,No
2018/10/09,23:20,0.306,0.192,0.312,0.301,0.285,0.155,0.096,south,1.5,No
2018/10/09,23:30,0.308,0.194,0.314,0.302,0.283,0.156,0.096,south-southwest,1.2,No
2018/10/09,23:40,0.307,0.194,0.313,0.300,0.283,0.156,0.095,south-southwest,1.4,No
2018/10/09,23:50,0.309,0.195,0.314,0.302,0.284,0.157,0.095,south-southwest,1.6,No
